Location: Unspecified
(0.0000°N, 0.0000°E)
Time: 11:37:32
(UTC+00:00)

ISS - Visible Passes

Search period start: 20 May 2018 00:00
Search period end: 30 May 2018 00:00
Orbit: 402 x 407 km, 51.6° (Epoch: 20 May)

Date Brightness Start Highest point End Pass type
(mag) Time Alt. Az. Time Alt. Az. Time Alt. Az.
20 May -0.3 19:23:23 10° WNW 19:24:39 12° NW 19:25:55 10° NNW visible
21 May -0.3 05:20:43 10° NNE 05:22:14 13° NE 05:23:45 10° E visible
21 May -1.5 18:29:34 10° WSW 18:32:30 30° NW 18:35:24 10° N visible
23 May -2.7 05:11:04 10° NNW 05:14:12 48° NE 05:17:22 10° SE visible
24 May -0.8 04:19:46 10° N 04:22:02 18° NE 04:24:19 10° E visible
25 May -3.2 05:03:07 10° WNW 05:06:07 34° SW 05:09:08 10° SSE visible
26 May -1.2 04:16:37 14° SE 04:16:37 14° SE 04:17:11 10° SE visible
